Time,TemperatureF,DewpointF,PressureIn,WindDirection,WindDirectionDegrees,WindSpeedMPH,WindSpeedGustMPH,Humidity,HourlyPrecipIn,Conditions,Clouds,dailyrainin,SoftwareType,DateUTC
2013-10-05 00:01:00,67.7,67.5,30.04,SE,135,0.0,0.0,99,0.00,,OVC OVC///CB,0.10,WUHU216DAVISVP2,2013-10-05 04:01:00,
2013-10-05 00:02:00,67.7,67.5,30.03,SE,135,0.0,0.0,99,0.00,,OVC OVC///CB,0.10,WUHU216DAVISVP2,2013-10-05 04:02:00,
2013-10-05 00:07:00,67.7,67.5,30.03,SE,135,0.0,0.0,99,0.00,,OVC OVC///CB,0.00,WUHU216DAVISVP2,2013-10-05 04:07:00,
2013-10-05 00:12:00,67.6,67.4,30.04,SE,136,0.0,0.0,99,0.00,,OVC OVC///CB,0.00,WUHU216DAVISVP2,2013-10-05 04:12:00,
2013-10-05 00:17:00,67.6,67.4,30.04,SE,135,0.0,0.0,99,0.00,,OVC OVC///CB,0.00,WUHU216DAVISVP2,2013-10-05 04:17:00,
2013-10-05 00:22:00,67.6,67.4,30.04,SE,135,0.0,0.0,99,0.00,,OVC OVC///CB,0.00,WUHU216DAVISVP2,2013-10-05 04:22:00,
2013-10-05 00:27:00,67.5,67.3,30.03,SE,135,0.0,0.0,99,0.00,,OVC OVC///CB,0.00,WUHU216DAVISVP2,2013-10-05 04:27:00,
2013-10-05 00:32:00,67.5,67.3,30.03,SE,136,0.0,0.0,99,0.00,,OVC OVC///CB,0.00,WUHU216DAVISVP2,2013-10-05 04:32:00,
2013-10-05 00:37:00,67.4,67.2,30.03,SE,136,0.0,0.0,99,0.00,,OVC OVC///CB,0.00,WUHU216DAVISVP2,2013-10-05 04:37:00,
2013-10-05 00:42:00,67.4,67.2,30.03,SE,135,0.0,0.0,99,0.00,,OVC OVC///CB,0.00,WUHU216DAVISVP2,2013-10-05 04:42:00,
2013-10-05 00:47:00,67.5,67.5,30.03,SE,135,0.0,0.0,100,0.00,,OVC OVC///CB,0.00,WUHU216DAVISVP2,2013-10-05 04:47:00,
2013-10-05 00:52:00,67.5,67.5,30.03,SE,135,0.0,0.0,100,0.00,,OVC OVC///CB,0.00,WUHU216DAVISVP2,2013-10-05 04:52:00,
2013-10-05 00:57:00,67.4,67.2,30.03,SE,135,0.0,0.0,99,0.00,,OVC OVC///CB,0.00,WUHU216DAVISVP2,2013-10-05 04:57:00,
2013-10-05 01:02:00,67.3,67.1,30.03,SE,135,0.0,0.0,99,0.00,,OVC OVC///CB,0.00,WUHU216DAVISVP2,2013-10-05 05:02:00,
2013-10-05 01:07:00,67.3,67.1,30.03,SE,135,0.0,0.0,99,0.00,,OVC OVC///CB,0.00,WUHU216DAVISVP2,2013-10-05 05:07:00,
2013-10-05 01:12:00,67.3,67.1,30.03,SE,136,0.0,0.0,99,0.00,,OVC OVC///CB,0.00,WUHU216DAVISVP2,2013-10-05 05:12:00,
2013-10-05 01:17:00,67.3,67.3,30.04,SE,136,0.0,0.0,100,0.00,,OVC OVC///CB,0.00,WUHU216DAVISVP2,2013-10-05 05:17:00,
2013-10-05 01:22:00,67.4,67.2,30.04,SE,136,0.0,0.0,99,0.00,,OVC OVC///CB,0.00,WUHU216DAVISVP2,2013-10-05 05:22:00,
2013-10-05 01:27:00,67.5,67.3,30.04,SE,136,0.0,1.0,99,0.00,,OVC OVC///CB,0.00,WUHU216DAVISVP2,2013-10-05 05:27:00,
2013-10-05 01:32:00,67.6,67.4,30.04,SE,136,0.0,1.0,99,0.00,,OVC OVC///CB,0.00,WUHU216DAVISVP2,2013-10-05 05:32:00,
2013-10-05 01:37:00,67.7,67.5,30.04,SSE,158,0.0,1.0,99,0.00,,OVC OVC///CB,0.00,WUHU216DAVISVP2,2013-10-05 05:37:00,
2013-10-05 01:42:00,67.8,67.3,30.03,SSE,158,0.0,1.0,98,0.00,,OVC OVC///CB,0.00,WUHU216DAVISVP2,2013-10-05 05:42:00,
2013-10-05 01:47:00,67.8,67.3,30.04,SSW,203,0.0,1.0,98,0.00,,OVC OVC///CB,0.00,WUHU216DAVISVP2,2013-10-05 05:47:00,
2013-10-05 01:52:00,67.8,67.3,30.03,SSW,198,0.0,1.0,98,0.00,,OVC OVC///CB,0.00,WUHU216DAVISVP2,2013-10-05 05:52:00,
2013-10-05 01:57:00,67.8,67.0,30.03,SSW,199,0.0,1.0,97,0.00,,OVC OVC///CB,0.00,WUHU216DAVISVP2,2013-10-05 05:57:00,
2013-10-05 02:02:00,67.8,67.0,30.03,SSW,199,0.0,1.0,97,0.00,,OVC OVC///CB,0.00,WUHU216DAVISVP2,2013-10-05 06:02:00,
2013-10-05 02:07:00,67.7,66.9,30.03,SSW,198,0.0,1.0,97,0.00,,OVC OVC///CB,0.00,WUHU216DAVISVP2,2013-10-05 06:07:00,
2013-10-05 02:12:00,67.5,66.7,30.03,SSW,200,0.0,1.0,97,0.00,,OVC OVC///CB,0.00,WUHU216DAVISVP2,2013-10-05 06:12:00,
2013-10-05 02:17:00,67.5,66.7,30.03,SSW,198,0.0,1.0,97,0.00,,OVC OVC///CB,0.00,WUHU216DAVISVP2,2013-10-05 06:17:00,
2013-10-05 02:22:00,67.4,66.6,30.03,SSW,199,0.0,1.0,97,0.00,,OVC OVC///CB,0.00,WUHU216DAVISVP2,2013-10-05 06:22:00,
2013-10-05 02:27:00,67.4,66.6,30.03,SSW,198,0.0,1.0,97,0.00,,OVC OVC///CB,0.00,WUHU216DAVISVP2,2013-10-05 06:27:00,
2013-10-05 02:32:00,67.3,66.5,30.03,SSW,198,0.0,1.0,97,0.00,,OVC OVC///CB,0.00,WUHU216DAVISVP2,2013-10-05 06:32:00,
2013-10-05 02:37:00,67.3,66.5,30.03,South,179,0.0,1.0,97,0.00,,OVC OVC///CB,0.00,WUHU216DAVISVP2,2013-10-05 06:37:00,
2013-10-05 02:42:00,67.3,66.5,30.03,South,186,0.0,1.0,97,0.00,,OVC OVC///CB,0.00,WUHU216DAVISVP2,2013-10-05 06:42:00,
2013-10-05 02:47:00,67.2,66.4,30.03,South,186,0.0,1.0,97,0.00,,OVC OVC///CB,0.00,WUHU216DAVISVP2,2013-10-05 06:47:00,
2013-10-05 02:52:00,67.1,66.3,30.03,SSW,195,0.0,1.0,97,0.00,,OVC OVC///CB,0.00,WUHU216DAVISVP2,2013-10-05 06:52:00,
2013-10-05 02:57:00,67.0,66.2,30.03,SSW,195,0.0,1.0,97,0.00,,OVC OVC///CB,0.00,WUHU216DAVISVP2,2013-10-05 06:57:00,
2013-10-05 03:02:00,66.9,66.4,30.03,SSW,195,0.0,1.0,98,0.00,,OVC OVC///CB,0.00,WUHU216DAVISVP2,2013-10-05 07:02:00,
2013-10-05 03:07:00,66.9,66.4,30.03,SSW,195,0.0,1.0,98,0.00,,OVC OVC///CB,0.00,WUHU216DAVISVP2,2013-10-05 07:07:00,
2013-10-05 03:12:00,66.9,66.4,30.03,SSW,195,0.0,1.0,98,0.00,,OVC OVC///CB,0.00,WUHU216DAVISVP2,2013-10-05 07:12:00,
2013-10-05 03:17:00,66.9,66.4,30.03,SSW,195,0.0,1.0,98,0.00,,OVC OVC///CB,0.00,WUHU216DAVISVP2,2013-10-05 07:17:00,
2013-10-05 03:22:00,66.9,66.4,30.03,SSW,198,0.0,1.0,98,0.00,,OVC OVC///CB,0.00,WUHU216DAVISVP2,2013-10-05 07:22:00,
2013-10-05 03:27:00,66.9,66.4,30.03,SSW,203,0.0,1.0,98,0.00,,OVC OVC///CB,0.00,WUHU216DAVISVP2,2013-10-05 07:27:00,
2013-10-05 03:32:00,67.0,66.2,30.03,SSW,204,0.0,1.0,97,0.00,,OVC OVC///CB,0.00,WUHU216DAVISVP2,2013-10-05 07:32:00,
2013-10-05 03:37:00,67.0,66.2,30.02,SSW,204,0.0,2.0,97,0.00,,OVC OVC///CB,0.00,WUHU216DAVISVP2,2013-10-05 07:37:00,
2013-10-05 03:42:00,67.0,66.2,30.02,SSW,205,0.0,2.0,97,0.00,,OVC OVC///CB,0.00,WUHU216DAVISVP2,2013-10-05 07:42:00,
2013-10-05 03:47:00,67.0,66.2,30.02,SW,233,0.0,2.0,97,0.00,,OVC OVC///CB,0.00,WUHU216DAVISVP2,2013-10-05 07:47:00,
2013-10-05 03:52:00,66.9,66.1,30.02,SSW,207,0.0,2.0,97,0.00,,OVC OVC///CB,0.00,WUHU216DAVISVP2,2013-10-05 07:52:00,
2013-10-05 03:57:00,66.8,66.0,30.02,SSW,207,0.0,2.0,97,0.00,,OVC OVC///CB,0.00,WUHU216DAVISVP2,2013-10-05 07:57:00,
2013-10-05 04:02:00,66.7,65.9,30.02,SSW,207,0.0,2.0,97,0.00,,OVC OVC///CB,0.00,WUHU216DAVISVP2,2013-10-05 08:02:00,
2013-10-05 04:07:00,66.6,66.1,30.02,SSW,207,0.0,1.0,98,0.00,,OVC OVC///CB,0.00,WUHU216DAVISVP2,2013-10-05 08:07:00,
2013-10-05 04:12:00,66.5,66.0,30.02,SSW,207,0.0,1.0,98,0.00,,OVC OVC///CB,0.00,WUHU216DAVISVP2,2013-10-05 08:12:00,
2013-10-05 04:17:00,66.5,66.0,30.02,SSW,196,0.0,1.0,98,0.00,,OVC OVC///CB,0.00,WUHU216DAVISVP2,2013-10-05 08:17:00,
2013-10-05 04:22:00,66.6,66.1,30.02,SSW,195,0.0,1.0,98,0.00,,OVC OVC///CB,0.00,WUHU216DAVISVP2,2013-10-05 08:22:00,
2013-10-05 04:27:00,66.7,66.2,30.02,SSW,203,0.0,1.0,98,0.00,,OVC OVC///CB,0.00,WUHU216DAVISVP2,2013-10-05 08:27:00,
2013-10-05 04:32:00,66.8,66.3,30.02,SSW,203,0.0,2.0,98,0.00,,OVC OVC///CB,0.00,WUHU216DAVISVP2,2013-10-05 08:32:00,
2013-10-05 04:37:00,66.8,66.3,30.02,SSW,204,0.0,2.0,98,0.00,,OVC OVC///CB,0.00,WUHU216DAVISVP2,2013-10-05 08:37:00,
2013-10-05 04:42:00,66.9,66.4,30.02,SSW,198,0.0,2.0,98,0.00,,OVC OVC///CB,0.00,WUHU216DAVISVP2,2013-10-05 08:42:00,
2013-10-05 04:47:00,66.9,66.4,30.02,SSW,208,1.0,2.0,98,0.00,,OVC OVC///CB,0.00,WUHU216DAVISVP2,2013-10-05 08:47:00,
2013-10-05 04:52:00,66.9,66.4,30.02,SW,230,0.0,2.0,98,0.00,,OVC OVC///CB,0.00,WUHU216DAVISVP2,2013-10-05 08:52:00,
2013-10-05 04:57:00,66.9,66.4,30.02,SW,221,0.0,2.0,98,0.00,,OVC OVC///CB,0.00,WUHU216DAVISVP2,2013-10-05 08:57:00,
2013-10-05 05:02:00,66.8,66.3,30.02,SSW,198,1.0,2.0,98,0.00,,OVC OVC///CB,0.00,WUHU216DAVISVP2,2013-10-05 09:02:00,
2013-10-05 05:07:00,66.7,66.2,30.02,SSW,207,1.0,2.0,98,0.00,,OVC OVC///CB,0.00,WUHU216DAVISVP2,2013-10-05 09:07:00,
2013-10-05 05:12:00,66.6,66.1,30.02,SSW,204,1.0,3.0,98,0.00,,OVC OVC///CB,0.00,WUHU216DAVISVP2,2013-10-05 09:12:00,
2013-10-05 05:17:00,66.6,66.1,30.02,SSW,208,0.0,3.0,98,0.00,,OVC OVC///CB,0.00,WUHU216DAVISVP2,2013-10-05 09:17:00,
2013-10-05 05:22:00,66.5,66.0,30.02,SSW,195,0.0,3.0,98,0.00,,OVC OVC///CB,0.00,WUHU216DAVISVP2,2013-10-05 09:22:00,
2013-10-05 05:27:00,66.5,66.0,30.02,SSW,204,0.0,3.0,98,0.00,,OVC OVC///CB,0.00,WUHU216DAVISVP2,2013-10-05 09:27:00,
2013-10-05 05:32:00,66.5,66.0,30.02,SSW,210,1.0,3.0,98,0.00,,OVC OVC///CB,0.00,WUHU216DAVISVP2,2013-10-05 09:32:00,
2013-10-05 05:37:00,66.4,65.9,30.02,SSW,208,0.0,3.0,98,0.00,,OVC OVC///CB,0.00,WUHU216DAVISVP2,2013-10-05 09:37:00,
2013-10-05 05:42:00,66.4,65.9,30.02,South,186,0.0,3.0,98,0.00,,OVC OVC///CB,0.00,WUHU216DAVISVP2,2013-10-05 09:42:00,
2013-10-05 05:47:00,66.3,65.8,30.03,SW,235,3.0,3.0,98,0.00,,OVC OVC///CB,0.00,WUHU216DAVISVP2,2013-10-05 09:47:00,
2013-10-05 05:52:00,66.4,65.9,30.03,SSW,208,0.0,3.0,98,0.00,,OVC OVC///CB,0.00,WUHU216DAVISVP2,2013-10-05 09:52:00,
2013-10-05 05:57:00,66.3,65.8,30.03,SSW,208,0.0,3.0,98,0.00,,OVC OVC///CB,0.00,WUHU216DAVISVP2,2013-10-05 09:57:00,
2013-10-05 06:01:00,66.2,65.7,30.03,SSW,208,0.0,3.0,98,0.00,,OVC OVC///CB,0.00,WUHU216DAVISVP2,2013-10-05 10:01:00,
2013-10-05 06:06:00,66.2,65.7,30.04,WNW,302,0.0,2.0,98,0.00,,OVC OVC///CB,0.00,WUHU216DAVISVP2,2013-10-05 10:06:00,
2013-10-05 06:11:00,66.1,65.6,30.04,WSW,238,0.0,2.0,98,0.00,,OVC OVC///CB,0.00,WUHU216DAVISVP2,2013-10-05 10:11:00,
2013-10-05 06:16:00,65.9,65.4,30.04,WSW,238,0.0,2.0,98,0.00,,OVC OVC///CB,0.00,WUHU216DAVISVP2,2013-10-05 10:16:00,
2013-10-05 06:21:00,65.8,65.3,30.04,WSW,239,0.0,2.0,98,0.00,,OVC OVC///CB,0.00,WUHU216DAVISVP2,2013-10-05 10:21:00,
2013-10-05 06:26:00,65.6,65.1,30.04,WSW,239,0.0,1.0,98,0.00,,OVC OVC///CB,0.00,WUHU216DAVISVP2,2013-10-05 10:26:00,
2013-10-05 06:31:00,65.4,64.9,30.04,WSW,239,0.0,1.0,98,0.00,,OVC OVC///CB,0.00,WUHU216DAVISVP2,2013-10-05 10:31:00,
2013-10-05 06:36:00,65.2,65.0,30.04,WSW,238,0.0,1.0,99,0.00,,OVC OVC///CB,0.00,WUHU216DAVISVP2,2013-10-05 10:36:00,
2013-10-05 06:41:00,65.0,64.8,30.04,WSW,239,0.0,1.0,99,0.00,,OVC OVC///CB,0.00,WUHU216DAVISVP2,2013-10-05 10:41:00,
2013-10-05 06:46:00,64.9,64.7,30.04,WSW,238,0.0,0.0,99,0.00,,OVC OVC///CB,0.00,WUHU216DAVISVP2,2013-10-05 10:46:00,
2013-10-05 06:51:00,64.8,64.6,30.04,ESE,122,0.0,1.0,99,0.00,,OVC OVC///CB,0.00,WUHU216DAVISVP2,2013-10-05 10:51:00,
2013-10-05 06:56:00,64.6,64.4,30.04,ESE,123,0.0,1.0,99,0.00,,OVC OVC///CB,0.00,WUHU216DAVISVP2,2013-10-05 10:56:00,
2013-10-05 07:01:00,64.6,64.6,30.04,ESE,122,0.0,1.0,100,0.00,,OVC OVC///CB,0.00,WUHU216DAVISVP2,2013-10-05 11:01:00,
2013-10-05 07:06:00,64.5,64.5,30.04,ESE,122,0.0,1.0,100,0.00,,OVC OVC///CB,0.00,WUHU216DAVISVP2,2013-10-05 11:06:00,
2013-10-05 07:11:00,64.3,64.3,30.03,ESE,122,0.0,0.0,100,0.00,,OVC OVC///CB,0.00,WUHU216DAVISVP2,2013-10-05 11:11:00,
2013-10-05 07:16:00,64.3,64.3,30.03,ESE,122,0.0,0.0,100,0.00,,OVC OVC///CB,0.00,WUHU216DAVISVP2,2013-10-05 11:16:00,
2013-10-05 07:21:00,64.3,64.3,30.03,ESE,122,0.0,0.0,100,0.00,,OVC OVC///CB,0.00,WUHU216DAVISVP2,2013-10-05 11:21:00,
2013-10-05 07:26:00,64.3,64.3,30.03,ESE,122,0.0,0.0,100,0.00,,OVC OVC///CB,0.00,WUHU216DAVISVP2,2013-10-05 11:26:00,
2013-10-05 07:31:00,64.2,64.2,30.03,ESE,122,0.0,0.0,100,0.00,,OVC OVC///CB,0.00,WUHU216DAVISVP2,2013-10-05 11:31:00,
2013-10-05 07:36:00,64.1,64.1,30.03,ESE,122,0.0,0.0,100,0.00,,OVC OVC///CB,0.00,WUHU216DAVISVP2,2013-10-05 11:36:00,
2013-10-05 07:41:00,64.2,64.2,30.04,ESE,122,0.0,0.0,100,0.00,,OVC OVC///CB,0.00,WUHU216DAVISVP2,2013-10-05 11:41:00,
2013-10-05 07:46:00,64.2,64.2,30.04,SE,124,0.0,0.0,100,0.00,,OVC OVC///CB,0.00,WUHU216DAVISVP2,2013-10-05 11:46:00,
2013-10-05 07:51:00,64.1,64.1,30.04,SE,125,0.0,0.0,100,0.00,,OVC OVC///CB,0.00,WUHU216DAVISVP2,2013-10-05 11:51:00,
2013-10-05 07:56:00,64.3,64.3,30.04,SW,229,0.0,1.0,100,0.00,,OVC OVC///CB,0.00,WUHU216DAVISVP2,2013-10-05 11:56:00,
2013-10-05 08:01:00,64.5,64.5,30.04,South,174,0.0,1.0,100,0.00,,OVC OVC///CB,0.00,WUHU216DAVISVP2,2013-10-05 12:01:00,
2013-10-05 08:06:00,64.7,64.7,30.04,South,174,0.0,1.0,100,0.00,,OVC OVC///CB,0.00,WUHU216DAVISVP2,2013-10-05 12:06:00,
2013-10-05 08:11:00,64.9,64.9,30.04,South,176,0.0,1.0,100,0.00,,OVC OVC///CB,0.00,WUHU216DAVISVP2,2013-10-05 12:11:00,
2013-10-05 08:16:00,65.0,65.0,30.04,South,174,0.0,1.0,100,0.00,,OVC OVC///CB,0.00,WUHU216DAVISVP2,2013-10-05 12:16:00,
2013-10-05 08:21:00,65.1,65.1,30.04,South,176,0.0,0.0,100,0.00,,OVC OVC///CB,0.00,WUHU216DAVISVP2,2013-10-05 12:21:00,
2013-10-05 08:26:00,65.2,65.2,30.04,South,174,0.0,0.0,100,0.00,,OVC OVC///CB,0.00,WUHU216DAVISVP2,2013-10-05 12:26:00,
2013-10-05 08:31:00,65.4,65.4,30.04,South,176,0.0,0.0,100,0.00,,OVC OVC///CB,0.00,WUHU216DAVISVP2,2013-10-05 12:31:00,
2013-10-05 08:36:00,65.5,65.5,30.04,South,176,0.0,0.0,100,0.00,,OVC OVC///CB,0.00,WUHU216DAVISVP2,2013-10-05 12:36:00,
2013-10-05 08:41:00,65.6,65.6,30.04,SW,221,0.0,2.0,100,0.00,,OVC OVC///CB,0.00,WUHU216DAVISVP2,2013-10-05 12:41:00,
2013-10-05 08:46:00,65.8,65.8,30.04,SSE,165,0.0,2.0,100,0.00,,OVC OVC///CB,0.00,WUHU216DAVISVP2,2013-10-05 12:46:00,
2013-10-05 08:51:00,65.9,65.9,30.04,SSE,165,0.0,2.0,100,0.00,,OVC OVC///CB,0.00,WUHU216DAVISVP2,2013-10-05 12:51:00,
2013-10-05 08:56:00,66.0,66.0,30.04,SSE,165,0.0,2.0,100,0.00,,OVC OVC///CB,0.00,WUHU216DAVISVP2,2013-10-05 12:56:00,
2013-10-05 09:01:00,66.2,66.2,30.04,SSE,165,0.0,1.0,100,0.00,,OVC OVC///CB,0.00,WUHU216DAVISVP2,2013-10-05 13:01:00,
2013-10-05 09:06:00,66.3,66.3,30.04,SW,215,0.0,1.0,100,0.00,,OVC OVC///CB,0.00,WUHU216DAVISVP2,2013-10-05 13:06:00,
2013-10-05 09:11:00,66.6,66.6,30.04,SW,215,0.0,1.0,100,0.00,,OVC OVC///CB,0.00,WUHU216DAVISVP2,2013-10-05 13:11:00,
2013-10-05 09:16:00,66.7,66.5,30.03,SE,128,0.0,1.0,99,0.00,,OVC OVC///CB,0.00,WUHU216DAVISVP2,2013-10-05 13:16:00,
2013-10-05 09:21:00,66.7,66.5,30.03,East,87,0.0,1.0,99,0.00,,OVC OVC///CB,0.00,WUHU216DAVISVP2,2013-10-05 13:21:00,
2013-10-05 09:26:00,66.9,66.7,30.03,East,89,0.0,1.0,99,0.00,,OVC OVC///CB,0.00,WUHU216DAVISVP2,2013-10-05 13:26:00,
2013-10-05 09:31:00,67.4,67.2,30.04,SSE,155,0.0,1.0,99,0.00,,OVC OVC///CB,0.00,WUHU216DAVISVP2,2013-10-05 13:31:00,
2013-10-05 09:36:00,67.9,67.4,30.04,ESE,108,0.0,1.0,98,0.00,,OVC OVC///CB,0.00,WUHU216DAVISVP2,2013-10-05 13:36:00,
2013-10-05 09:41:00,68.4,67.6,30.04,SSW,210,2.0,2.0,97,0.00,,OVC OVC///CB,0.00,WUHU216DAVISVP2,2013-10-05 13:41:00,
2013-10-05 09:46:00,68.9,68.1,30.04,South,186,1.0,2.0,97,0.00,,OVC OVC///CB,0.00,WUHU216DAVISVP2,2013-10-05 13:46:00,
2013-10-05 09:51:00,69.5,68.4,30.04,NE,44,0.0,2.0,96,0.00,,OVC OVC///CB,0.00,WUHU216DAVISVP2,2013-10-05 13:51:00,
2013-10-05 09:56:00,69.9,68.5,30.04,NE,44,0.0,2.0,95,0.00,,OVC OVC///CB,0.00,WUHU216DAVISVP2,2013-10-05 13:56:00,
2013-10-05 10:01:00,70.0,68.3,30.04,NE,44,0.0,2.0,94,0.00,,OVC OVC///CB,0.00,WUHU216DAVISVP2,2013-10-05 14:01:00,
2013-10-05 10:06:00,70.1,68.4,30.04,NE,44,0.0,1.0,94,0.00,,OVC OVC///CB,0.00,WUHU216DAVISVP2,2013-10-05 14:06:00,
2013-10-05 10:11:00,70.5,68.8,30.03,SSE,163,0.0,1.0,94,0.00,,OVC OVC///CB,0.00,WUHU216DAVISVP2,2013-10-05 14:11:00,
2013-10-05 10:16:00,70.8,68.8,30.03,SW,214,0.0,2.0,93,0.00,,OVC OVC///CB,0.00,WUHU216DAVISVP2,2013-10-05 14:16:00,
2013-10-05 10:21:00,71.1,69.1,30.03,SSE,155,0.0,3.0,93,0.00,,OVC OVC///CB,0.00,WUHU216DAVISVP2,2013-10-05 14:21:00,
2013-10-05 10:26:00,71.6,69.3,30.02,East,93,4.0,4.0,92,0.00,,OVC OVC///CB,0.00,WUHU216DAVISVP2,2013-10-05 14:26:00,
2013-10-05 10:31:00,71.9,69.9,30.03,SE,143,0.0,4.0,93,0.00,,OVC OVC///CB,0.00,WUHU216DAVISVP2,2013-10-05 14:31:00,
2013-10-05 10:36:00,72.6,69.9,30.03,SSW,210,0.0,4.0,91,0.00,,OVC OVC///CB,0.00,WUHU216DAVISVP2,2013-10-05 14:36:00,
2013-10-05 10:41:00,73.1,70.4,30.03,ESE,117,1.0,4.0,91,0.00,,OVC OVC///CB,0.00,WUHU216DAVISVP2,2013-10-05 14:41:00,
2013-10-05 10:46:00,73.5,70.5,30.03,SSW,212,1.0,4.0,90,0.00,,OVC OVC///CB,0.00,WUHU216DAVISVP2,2013-10-05 14:46:00,
2013-10-05 10:51:00,73.2,69.9,30.02,SSW,208,0.0,4.0,89,0.00,,OVC OVC///CB,0.00,WUHU216DAVISVP2,2013-10-05 14:51:00,
2013-10-05 10:56:00,73.4,70.4,30.03,SW,214,1.0,5.0,90,0.00,,OVC OVC///CB,0.00,WUHU216DAVISVP2,2013-10-05 14:56:00,
2013-10-05 11:01:00,73.5,70.5,30.02,WSW,256,0.0,5.0,90,0.00,,OVC OVC///CB,0.00,WUHU216DAVISVP2,2013-10-05 15:01:00,
2013-10-05 11:06:00,73.4,70.4,30.02,South,184,0.0,5.0,90,0.00,,OVC OVC///CB,0.00,WUHU216DAVISVP2,2013-10-05 15:06:00,
2013-10-05 11:11:00,73.5,70.5,30.02,SW,224,0.0,5.0,90,0.00,,OVC OVC///CB,0.00,WUHU216DAVISVP2,2013-10-05 15:11:00,
2013-10-05 11:16:00,74.1,71.1,30.02,SSW,197,0.0,5.0,90,0.00,,OVC OVC///CB,0.00,WUHU216DAVISVP2,2013-10-05 15:16:00,
2013-10-05 11:21:00,74.3,70.6,30.03,SSW,210,1.0,5.0,88,0.00,,OVC OVC///CB,0.00,WUHU216DAVISVP2,2013-10-05 15:21:00,
2013-10-05 11:26:00,73.9,70.3,30.02,SSW,204,0.0,5.0,88,0.00,,OVC OVC///CB,0.00,WUHU216DAVISVP2,2013-10-05 15:26:00,
2013-10-05 11:31:00,73.5,70.2,30.03,SW,224,0.0,5.0,89,0.00,,OVC OVC///CB,0.00,WUHU216DAVISVP2,2013-10-05 15:31:00,
2013-10-05 11:36:00,73.3,70.3,30.02,WSW,240,2.0,5.0,90,0.00,,OVC OVC///CB,0.00,WUHU216DAVISVP2,2013-10-05 15:36:00,
2013-10-05 11:41:00,73.0,70.0,30.02,SSW,207,1.0,6.0,90,0.00,,OVC OVC///CB,0.00,WUHU216DAVISVP2,2013-10-05 15:41:00,
2013-10-05 11:46:00,72.8,70.1,30.02,SSW,213,1.0,6.0,91,0.00,,OVC OVC///CB,0.00,WUHU216DAVISVP2,2013-10-05 15:46:00,
2013-10-05 11:51:00,72.8,70.1,30.02,SE,128,0.0,6.0,91,0.00,,OVC OVC///CB,0.00,WUHU216DAVISVP2,2013-10-05 15:51:00,
2013-10-05 11:56:00,72.7,70.3,30.01,ESE,108,0.0,6.0,92,0.00,,OVC OVC///CB,0.00,WUHU216DAVISVP2,2013-10-05 15:56:00,
2013-10-05 12:01:00,72.6,70.2,30.03,SW,228,1.0,5.0,92,0.00,,OVC OVC///CB,0.00,WUHU216DAVISVP2,2013-10-05 16:01:00,
2013-10-05 12:06:00,72.5,70.1,30.02,SSW,200,0.0,5.0,92,0.00,,OVC OVC///CB,0.00,WUHU216DAVISVP2,2013-10-05 16:06:00,
2013-10-05 12:11:00,72.4,70.0,30.03,SSW,212,4.0,4.0,92,0.00,,OVC OVC///CB,0.00,WUHU216DAVISVP2,2013-10-05 16:11:00,
2013-10-05 12:16:00,72.3,69.9,30.03,SSW,203,1.0,5.0,92,0.00,,OVC OVC///CB,0.00,WUHU216DAVISVP2,2013-10-05 16:16:00,
2013-10-05 12:21:00,72.2,69.8,30.02,SSW,194,2.0,5.0,92,0.00,,OVC OVC///CB,0.00,WUHU216DAVISVP2,2013-10-05 16:21:00,
2013-10-05 12:26:00,72.1,69.7,30.02,SSW,213,1.0,5.0,92,0.00,,OVC OVC///CB,0.00,WUHU216DAVISVP2,2013-10-05 16:26:00,
2013-10-05 12:31:00,72.1,70.1,30.03,SSW,202,0.0,4.0,93,0.00,,OVC OVC///CB,0.00,WUHU216DAVISVP2,2013-10-05 16:31:00,
2013-10-05 12:36:00,72.0,70.0,30.02,South,190,0.0,4.0,93,0.00,,OVC OVC///CB,0.00,WUHU216DAVISVP2,2013-10-05 16:36:00,
2013-10-05 12:41:00,71.9,69.9,30.03,SSW,212,0.0,3.0,93,0.00,,OVC OVC///CB,0.00,WUHU216DAVISVP2,2013-10-05 16:41:00,
2013-10-05 12:46:00,71.9,70.2,30.03,SSW,208,0.0,2.0,94,0.00,,OVC OVC///CB,0.00,WUHU216DAVISVP2,2013-10-05 16:46:00,
2013-10-05 12:51:00,71.8,70.1,30.03,SSW,208,0.0,2.0,94,0.01,,OVC OVC///CB,0.01,WUHU216DAVISVP2,2013-10-05 16:51:00,
2013-10-05 12:56:00,71.6,70.2,30.02,SSW,208,0.0,2.0,95,0.02,,OVC OVC///CB,0.02,WUHU216DAVISVP2,2013-10-05 16:56:00,
2013-10-05 13:01:00,71.5,70.1,30.03,SSW,208,0.0,2.0,95,0.02,,OVC OVC///CB,0.02,WUHU216DAVISVP2,2013-10-05 17:01:00,
2013-10-05 13:06:00,71.3,70.2,30.02,SSW,208,0.0,0.0,96,0.02,,OVC OVC///CB,0.02,WUHU216DAVISVP2,2013-10-05 17:06:00,
2013-10-05 13:11:00,71.2,70.1,30.02,SSW,208,0.0,0.0,96,0.03,,OVC OVC///CB,0.03,WUHU216DAVISVP2,2013-10-05 17:11:00,
2013-10-05 13:16:00,71.2,70.4,30.02,SSW,208,0.0,0.0,97,0.04,,OVC OVC///CB,0.04,WUHU216DAVISVP2,2013-10-05 17:16:00,
2013-10-05 13:21:00,71.2,70.4,30.02,SSW,208,0.0,0.0,97,0.04,,OVC OVC///CB,0.04,WUHU216DAVISVP2,2013-10-05 17:21:00,
2013-10-05 13:26:00,71.2,70.4,30.02,SSW,208,0.0,0.0,97,0.05,,OVC OVC///CB,0.05,WUHU216DAVISVP2,2013-10-05 17:26:00,
2013-10-05 13:31:00,71.3,70.5,30.02,SSW,208,0.0,1.0,97,0.05,,OVC OVC///CB,0.05,WUHU216DAVISVP2,2013-10-05 17:31:00,
2013-10-05 13:36:00,71.2,70.4,30.01,SSW,208,0.0,1.0,97,0.05,,OVC OVC///CB,0.05,WUHU216DAVISVP2,2013-10-05 17:36:00,
2013-10-05 13:41:00,71.5,70.7,30.01,SSW,208,0.0,1.0,97,0.06,,OVC OVC///CB,0.06,WUHU216DAVISVP2,2013-10-05 17:41:00,
2013-10-05 13:46:00,71.5,71.0,30.00,South,186,0.0,2.0,98,0.07,,OVC OVC///CB,0.07,WUHU216DAVISVP2,2013-10-05 17:46:00,
2013-10-05 13:51:00,71.7,71.2,30.00,South,179,0.0,2.0,98,0.06,,OVC OVC///CB,0.07,WUHU216DAVISVP2,2013-10-05 17:51:00,
2013-10-05 13:56:00,71.8,71.3,29.99,South,180,0.0,2.0,98,0.05,,OVC OVC///CB,0.07,WUHU216DAVISVP2,2013-10-05 17:56:00,
2013-10-05 14:01:00,71.8,71.3,29.99,SSE,153,0.0,2.0,98,0.06,,OVC OVC///CB,0.08,WUHU216DAVISVP2,2013-10-05 18:01:00,
2013-10-05 14:06:00,72.1,71.6,29.99,SSE,159,0.0,1.0,98,0.06,,OVC OVC///CB,0.08,WUHU216DAVISVP2,2013-10-05 18:06:00,
2013-10-05 14:11:00,72.2,71.7,29.99,SW,221,0.0,2.0,98,0.05,,OVC OVC///CB,0.08,WUHU216DAVISVP2,2013-10-05 18:11:00,
2013-10-05 14:16:00,72.5,71.7,29.99,SSE,168,0.0,3.0,97,0.04,,OVC OVC///CB,0.08,WUHU216DAVISVP2,2013-10-05 18:16:00,
2013-10-05 14:21:00,72.5,71.4,29.98,SSW,212,0.0,3.0,96,0.04,,OVC OVC///CB,0.08,WUHU216DAVISVP2,2013-10-05 18:21:00,
2013-10-05 14:26:00,72.8,72.0,29.98,SSW,201,0.0,3.0,97,0.03,,OVC OVC///CB,0.08,WUHU216DAVISVP2,2013-10-05 18:26:00,
2013-10-05 14:31:00,73.1,72.0,29.98,SSW,197,2.0,3.0,96,0.03,,OVC OVC///CB,0.08,WUHU216DAVISVP2,2013-10-05 18:31:00,
2013-10-05 14:36:00,73.1,71.7,29.98,SSW,212,1.0,4.0,95,0.03,,OVC OVC///CB,0.08,WUHU216DAVISVP2,2013-10-05 18:36:00,
2013-10-05 14:41:00,73.2,72.1,29.98,SSW,197,0.0,4.0,96,0.02,,OVC OVC///CB,0.08,WUHU216DAVISVP2,2013-10-05 18:41:00,
2013-10-05 14:46:00,73.3,72.2,29.98,SSE,159,0.0,4.0,96,0.01,,OVC OVC///CB,0.08,WUHU216DAVISVP2,2013-10-05 18:46:00,
2013-10-05 14:51:00,73.5,72.4,29.98,SSE,159,0.0,4.0,96,0.01,,OVC OVC///CB,0.08,WUHU216DAVISVP2,2013-10-05 18:51:00,
2013-10-05 14:56:00,73.4,72.0,29.97,SSE,159,0.0,4.0,95,0.01,,OVC OVC///CB,0.08,WUHU216DAVISVP2,2013-10-05 18:56:00,
2013-10-05 15:01:00,73.5,72.4,29.97,SSE,159,0.0,4.0,96,0.00,,OVC OVC///CB,0.08,WUHU216DAVISVP2,2013-10-05 19:01:00,
2013-10-05 15:06:00,73.3,71.9,29.97,SSE,163,0.0,1.0,95,0.00,,OVC OVC///CB,0.08,WUHU216DAVISVP2,2013-10-05 19:06:00,
2013-10-05 15:11:00,73.2,71.8,29.98,SSW,200,0.0,1.0,95,0.00,,OVC OVC///CB,0.08,WUHU216DAVISVP2,2013-10-05 19:11:00,
2013-10-05 15:16:00,72.8,71.4,29.98,SSW,210,3.0,4.0,95,0.00,,OVC OVC///CB,0.08,WUHU216DAVISVP2,2013-10-05 19:16:00,
2013-10-05 15:21:00,72.5,71.4,29.98,SSW,195,0.0,4.0,96,0.00,,OVC OVC///CB,0.08,WUHU216DAVISVP2,2013-10-05 19:21:00,
2013-10-05 15:26:00,72.1,71.0,29.99,SW,233,0.0,4.0,96,0.01,,OVC OVC///CB,0.09,WUHU216DAVISVP2,2013-10-05 19:26:00,
2013-10-05 15:31:00,71.9,71.1,29.99,WSW,248,0.0,4.0,97,0.03,,OVC OVC///CB,0.11,WUHU216DAVISVP2,2013-10-05 19:31:00,
2013-10-05 15:36:00,71.8,71.0,29.98,WSW,248,0.0,2.0,97,0.04,,OVC OVC///CB,0.12,WUHU216DAVISVP2,2013-10-05 19:36:00,
2013-10-05 15:41:00,71.6,71.1,29.98,SW,224,0.0,2.0,98,0.05,,OVC OVC///CB,0.13,WUHU216DAVISVP2,2013-10-05 19:41:00,
2013-10-05 15:46:00,71.4,70.9,29.98,ESE,115,0.0,2.0,98,0.07,,OVC OVC///CB,0.15,WUHU216DAVISVP2,2013-10-05 19:46:00,
2013-10-05 15:51:00,71.3,70.8,29.98,ESE,115,0.0,1.0,98,0.07,,OVC OVC///CB,0.15,WUHU216DAVISVP2,2013-10-05 19:51:00,
2013-10-05 15:56:00,71.3,71.1,29.98,East,95,0.0,1.0,99,0.08,,OVC OVC///CB,0.16,WUHU216DAVISVP2,2013-10-05 19:56:00,
2013-10-05 16:01:00,71.3,71.1,29.98,ESE,113,2.0,3.0,99,0.08,,OVC OVC///CB,0.16,WUHU216DAVISVP2,2013-10-05 20:01:00,
2013-10-05 16:06:00,71.2,71.0,29.98,SW,217,0.0,4.0,99,0.08,,OVC OVC///CB,0.16,WUHU216DAVISVP2,2013-10-05 20:06:00,
2013-10-05 16:11:00,71.1,70.9,29.97,SE,129,1.0,4.0,99,0.08,,OVC OVC///CB,0.16,WUHU216DAVISVP2,2013-10-05 20:11:00,
2013-10-05 16:16:00,71.1,70.9,29.97,SSW,210,1.0,3.0,99,0.08,,OVC OVC///CB,0.16,WUHU216DAVISVP2,2013-10-05 20:16:00,
2013-10-05 16:21:00,71.1,70.9,29.97,SW,226,0.0,3.0,99,0.08,,OVC OVC///CB,0.16,WUHU216DAVISVP2,2013-10-05 20:21:00,
2013-10-05 16:26:00,71.3,71.1,29.97,SE,138,0.0,3.0,99,0.07,,OVC OVC///CB,0.16,WUHU216DAVISVP2,2013-10-05 20:26:00,
2013-10-05 16:31:00,71.5,71.3,29.96,SE,138,0.0,3.0,99,0.05,,OVC OVC///CB,0.16,WUHU216DAVISVP2,2013-10-05 20:31:00,
2013-10-05 16:36:00,71.6,71.4,29.96,WSW,238,0.0,3.0,99,0.04,,OVC OVC///CB,0.16,WUHU216DAVISVP2,2013-10-05 20:36:00,
2013-10-05 16:41:00,71.6,71.1,29.96,SSE,160,0.0,3.0,98,0.02,,OVC OVC///CB,0.16,WUHU216DAVISVP2,2013-10-05 20:41:00,
2013-10-05 16:46:00,71.5,71.0,29.96,SSE,160,0.0,1.0,98,0.01,,OVC OVC///CB,0.16,WUHU216DAVISVP2,2013-10-05 20:46:00,
2013-10-05 16:51:00,71.6,71.1,29.96,SSE,160,0.0,1.0,98,0.01,,OVC OVC///CB,0.16,WUHU216DAVISVP2,2013-10-05 20:51:00,
2013-10-05 16:56:00,71.6,70.8,29.96,WSW,240,0.0,2.0,97,0.00,,OVC OVC///CB,0.16,WUHU216DAVISVP2,2013-10-05 20:56:00,
2013-10-05 17:01:00,71.5,70.7,29.95,SW,225,0.0,2.0,97,0.00,,OVC OVC///CB,0.16,WUHU216DAVISVP2,2013-10-05 21:01:00,
2013-10-05 17:06:00,71.5,70.4,29.96,SW,225,0.0,2.0,96,0.00,,OVC OVC///CB,0.16,WUHU216DAVISVP2,2013-10-05 21:06:00,
2013-10-05 17:11:00,71.4,70.3,29.95,SW,224,0.0,2.0,96,0.00,,OVC OVC///CB,0.16,WUHU216DAVISVP2,2013-10-05 21:11:00,
2013-10-05 17:16:00,71.4,70.3,29.96,SW,225,0.0,1.0,96,0.00,,OVC OVC///CB,0.16,WUHU216DAVISVP2,2013-10-05 21:16:00,
2013-10-05 17:21:00,71.1,69.7,29.96,SSW,204,1.0,6.0,95,0.00,,OVC OVC///CB,0.16,WUHU216DAVISVP2,2013-10-05 21:21:00,
2013-10-05 17:26:00,70.9,69.5,29.95,South,190,0.0,6.0,95,0.00,,OVC OVC///CB,0.16,WUHU216DAVISVP2,2013-10-05 21:26:00,
2013-10-05 17:31:00,70.7,69.3,29.95,SSE,160,0.0,6.0,95,0.00,,OVC OVC///CB,0.16,WUHU216DAVISVP2,2013-10-05 21:31:00,
2013-10-05 17:36:00,70.7,69.6,29.95,SW,221,0.0,6.0,96,0.00,,OVC OVC///CB,0.16,WUHU216DAVISVP2,2013-10-05 21:36:00,
2013-10-05 17:41:00,70.6,69.5,29.95,SW,221,0.0,3.0,96,0.00,,OVC OVC///CB,0.16,WUHU216DAVISVP2,2013-10-05 21:41:00,
2013-10-05 17:46:00,70.6,69.5,29.95,SW,221,0.0,3.0,96,0.00,,OVC OVC///CB,0.16,WUHU216DAVISVP2,2013-10-05 21:46:00,
2013-10-05 17:51:00,70.6,69.5,29.95,SW,221,0.0,3.0,96,0.00,,OVC OVC///CB,0.16,WUHU216DAVISVP2,2013-10-05 21:51:00,
2013-10-05 17:56:00,70.6,69.5,29.95,SW,221,0.0,1.0,96,0.00,,OVC OVC///CB,0.16,WUHU216DAVISVP2,2013-10-05 21:56:00,
2013-10-05 18:01:00,70.4,69.3,29.95,SSE,165,0.0,0.0,96,0.00,,OVC OVC///CB,0.16,WUHU216DAVISVP2,2013-10-05 22:01:00,
2013-10-05 18:06:00,70.3,69.5,29.95,SSE,165,0.0,0.0,97,0.00,,OVC OVC///CB,0.16,WUHU216DAVISVP2,2013-10-05 22:06:00,
2013-10-05 18:11:00,70.2,69.4,29.95,WSW,243,0.0,1.0,97,0.00,,OVC OVC///CB,0.16,WUHU216DAVISVP2,2013-10-05 22:11:00,
2013-10-05 18:16:00,70.1,69.3,29.95,WSW,243,0.0,1.0,97,0.00,,OVC OVC///CB,0.16,WUHU216DAVISVP2,2013-10-05 22:16:00,
2013-10-05 18:21:00,70.0,69.2,29.95,East,100,0.0,1.0,97,0.00,,OVC OVC///CB,0.16,WUHU216DAVISVP2,2013-10-05 22:21:00,
2013-10-05 18:26:00,69.9,69.4,29.94,East,100,0.0,1.0,98,0.00,,OVC OVC///CB,0.16,WUHU216DAVISVP2,2013-10-05 22:26:00,
2013-10-05 18:31:00,69.9,69.4,29.94,SSE,166,0.0,1.0,98,0.00,,OVC OVC///CB,0.16,WUHU216DAVISVP2,2013-10-05 22:31:00,
2013-10-05 18:36:00,69.8,69.3,29.94,SW,226,0.0,1.0,98,0.00,,OVC OVC///CB,0.16,WUHU216DAVISVP2,2013-10-05 22:36:00,
2013-10-05 18:41:00,69.7,69.2,29.94,SW,226,0.0,1.0,98,0.00,,OVC OVC///CB,0.16,WUHU216DAVISVP2,2013-10-05 22:41:00,
2013-10-05 18:46:00,69.6,69.1,29.94,SW,226,0.0,1.0,98,0.00,,OVC OVC///CB,0.16,WUHU216DAVISVP2,2013-10-05 22:46:00,
2013-10-05 18:51:00,69.5,69.0,29.94,SW,226,0.0,1.0,98,0.00,,OVC OVC///CB,0.16,WUHU216DAVISVP2,2013-10-05 22:51:00,
2013-10-05 18:56:00,69.3,68.8,29.94,SW,226,0.0,1.0,98,0.00,,OVC OVC///CB,0.16,WUHU216DAVISVP2,2013-10-05 22:56:00,
2013-10-05 19:02:00,69.1,68.6,29.94,SW,226,0.0,0.0,98,0.00,,OVC OVC///CB,0.16,WUHU216DAVISVP2,2013-10-05 23:02:00,
2013-10-05 19:07:00,69.0,68.8,29.94,SW,226,0.0,0.0,99,0.00,,OVC OVC///CB,0.16,WUHU216DAVISVP2,2013-10-05 23:07:00,
2013-10-05 19:12:00,68.9,68.7,29.94,SSW,194,0.0,1.0,99,0.00,,OVC OVC///CB,0.16,WUHU216DAVISVP2,2013-10-05 23:12:00,
2013-10-05 19:17:00,68.9,68.7,29.94,SSW,204,0.0,1.0,99,0.00,,OVC OVC///CB,0.16,WUHU216DAVISVP2,2013-10-05 23:17:00,
2013-10-05 19:22:00,68.8,68.6,29.94,SW,227,2.0,2.0,99,0.00,,OVC OVC///CB,0.16,WUHU216DAVISVP2,2013-10-05 23:22:00,
2013-10-05 19:27:00,68.8,68.6,29.94,SSW,205,2.0,2.0,99,0.00,,OVC OVC///CB,0.16,WUHU216DAVISVP2,2013-10-05 23:27:00,
2013-10-05 19:32:00,68.8,68.6,29.95,SSW,199,0.0,4.0,99,0.00,,OVC OVC///CB,0.16,WUHU216DAVISVP2,2013-10-05 23:32:00,
2013-10-05 19:37:00,68.9,68.7,29.95,SSW,195,0.0,4.0,99,0.03,,OVC OVC///CB,0.19,WUHU216DAVISVP2,2013-10-05 23:37:00,
2013-10-05 19:42:00,68.9,68.7,29.95,South,186,2.0,4.0,99,0.03,,OVC OVC///CB,0.19,WUHU216DAVISVP2,2013-10-05 23:42:00,
2013-10-05 19:47:00,68.9,68.7,29.96,South,191,0.0,4.0,99,0.03,,OVC OVC///CB,0.19,WUHU216DAVISVP2,2013-10-05 23:47:00,
2013-10-05 19:52:00,69.0,68.8,29.96,SW,226,0.0,4.0,99,0.03,,OVC OVC///CB,0.19,WUHU216DAVISVP2,2013-10-05 23:52:00,
2013-10-05 19:57:00,69.0,68.8,29.96,WSW,255,1.0,4.0,99,0.03,,OVC OVC///CB,0.19,WUHU216DAVISVP2,2013-10-05 23:57:00,
2013-10-05 20:02:00,69.0,68.8,29.97,SSW,212,2.0,4.0,99,0.03,,OVC OVC///CB,0.19,WUHU216DAVISVP2,2013-10-06 00:02:00,
2013-10-05 20:07:00,69.0,68.8,29.97,SW,214,2.0,7.0,99,0.04,,OVC OVC///CB,0.20,WUHU216DAVISVP2,2013-10-06 00:07:00,
2013-10-05 20:12:00,69.0,68.8,29.97,SW,227,1.0,7.0,99,0.04,,OVC OVC///CB,0.20,WUHU216DAVISVP2,2013-10-06 00:12:00,
2013-10-05 20:17:00,69.0,68.8,29.97,SW,224,1.0,6.0,99,0.05,,OVC OVC///CB,0.21,WUHU216DAVISVP2,2013-10-06 00:17:00,
2013-10-05 20:22:00,69.0,68.8,29.97,SSW,208,0.0,6.0,99,0.10,,OVC OVC///CB,0.26,WUHU216DAVISVP2,2013-10-06 00:22:00,
2013-10-05 20:27:00,68.9,68.7,29.97,SW,235,2.0,3.0,99,0.11,,OVC OVC///CB,0.27,WUHU216DAVISVP2,2013-10-06 00:27:00,
2013-10-05 20:32:00,68.9,68.9,29.97,SSW,200,3.0,4.0,100,0.11,,OVC OVC///CB,0.27,WUHU216DAVISVP2,2013-10-06 00:32:00,
2013-10-05 20:37:00,68.9,68.9,29.97,SSW,212,2.0,4.0,100,0.08,,OVC OVC///CB,0.27,WUHU216DAVISVP2,2013-10-06 00:37:00,
2013-10-05 20:42:00,68.8,68.8,29.97,SW,233,0.0,4.0,100,0.08,,OVC OVC///CB,0.27,WUHU216DAVISVP2,2013-10-06 00:42:00,
2013-10-05 20:47:00,68.8,68.8,29.97,SSW,200,2.0,4.0,100,0.08,,OVC OVC///CB,0.27,WUHU216DAVISVP2,2013-10-06 00:47:00,
2013-10-05 20:52:00,68.8,68.8,29.97,SW,231,2.0,5.0,100,0.09,,OVC OVC///CB,0.28,WUHU216DAVISVP2,2013-10-06 00:52:00,
2013-10-05 20:57:00,68.8,68.8,29.97,South,176,0.0,6.0,100,0.19,,OVC OVC///CB,0.38,WUHU216DAVISVP2,2013-10-06 00:57:00,
2013-10-05 21:02:00,68.7,68.7,29.97,SW,234,0.0,8.0,100,0.20,,OVC OVC///CB,0.39,WUHU216DAVISVP2,2013-10-06 01:02:00,
2013-10-05 21:07:00,68.7,68.7,29.96,SSW,199,0.0,8.0,100,0.19,,OVC OVC///CB,0.39,WUHU216DAVISVP2,2013-10-06 01:07:00,
2013-10-05 21:12:00,68.7,68.7,29.97,SSW,199,0.0,8.0,100,0.19,,OVC OVC///CB,0.39,WUHU216DAVISVP2,2013-10-06 01:12:00,
2013-10-05 21:17:00,68.6,68.6,29.96,SSW,200,0.0,8.0,100,0.18,,OVC OVC///CB,0.39,WUHU216DAVISVP2,2013-10-06 01:17:00,
2013-10-05 21:22:00,68.5,68.5,29.96,SSW,207,0.0,1.0,100,0.13,,OVC OVC///CB,0.39,WUHU216DAVISVP2,2013-10-06 01:22:00,
2013-10-05 21:27:00,68.4,68.4,29.96,SSW,197,0.0,5.0,100,0.12,,OVC OVC///CB,0.39,WUHU216DAVISVP2,2013-10-06 01:27:00,
2013-10-05 21:32:00,68.3,68.3,29.96,SW,235,0.0,5.0,100,0.12,,OVC OVC///CB,0.39,WUHU216DAVISVP2,2013-10-06 01:32:00,
2013-10-05 21:37:00,68.2,68.2,29.97,WSW,245,0.0,4.0,100,0.12,,OVC OVC///CB,0.39,WUHU216DAVISVP2,2013-10-06 01:37:00,
2013-10-05 21:42:00,68.2,68.2,29.96,SSW,195,0.0,4.0,100,0.12,,OVC OVC///CB,0.39,WUHU216DAVISVP2,2013-10-06 01:42:00,
2013-10-05 21:47:00,68.1,68.1,29.96,SE,127,0.0,2.0,100,0.12,,OVC OVC///CB,0.39,WUHU216DAVISVP2,2013-10-06 01:47:00,
2013-10-05 21:52:00,68.0,68.0,29.97,SSW,205,0.0,2.0,100,0.11,,OVC OVC///CB,0.39,WUHU216DAVISVP2,2013-10-06 01:52:00,
2013-10-05 21:57:00,68.0,68.0,29.97,SSW,205,0.0,2.0,100,0.02,,OVC OVC///CB,0.40,WUHU216DAVISVP2,2013-10-06 01:57:00,
2013-10-05 22:02:00,68.0,68.0,29.96,SSW,205,0.0,2.0,100,0.01,,OVC OVC///CB,0.40,WUHU216DAVISVP2,2013-10-06 02:02:00,
2013-10-05 22:07:00,67.9,67.9,29.97,SSW,205,0.0,2.0,100,0.02,,OVC OVC///CB,0.41,WUHU216DAVISVP2,2013-10-06 02:07:00,
2013-10-05 22:12:00,67.9,67.9,29.97,SSW,205,0.0,2.0,100,0.02,,OVC OVC///CB,0.41,WUHU216DAVISVP2,2013-10-06 02:12:00,
2013-10-05 22:17:00,68.0,68.0,29.96,SSW,205,0.0,1.0,100,0.03,,OVC OVC///CB,0.42,WUHU216DAVISVP2,2013-10-06 02:17:00,
2013-10-05 22:22:00,68.0,68.0,29.96,ESE,103,0.0,3.0,100,0.03,,OVC OVC///CB,0.42,WUHU216DAVISVP2,2013-10-06 02:22:00,
2013-10-05 22:27:00,67.9,67.9,29.96,ESE,103,0.0,3.0,100,0.03,,OVC OVC///CB,0.42,WUHU216DAVISVP2,2013-10-06 02:27:00,
2013-10-05 22:32:00,67.9,67.9,29.96,ESE,103,0.0,2.0,100,0.03,,OVC OVC///CB,0.42,WUHU216DAVISVP2,2013-10-06 02:32:00,
2013-10-05 22:37:00,67.9,67.9,29.96,ESE,103,0.0,2.0,100,0.03,,OVC OVC///CB,0.42,WUHU216DAVISVP2,2013-10-06 02:37:00,
2013-10-05 22:42:00,68.0,68.0,29.96,ESE,103,0.0,0.0,100,0.03,,OVC OVC///CB,0.42,WUHU216DAVISVP2,2013-10-06 02:42:00,
2013-10-05 22:47:00,68.0,68.0,29.95,ESE,103,0.0,0.0,100,0.04,,OVC OVC///CB,0.43,WUHU216DAVISVP2,2013-10-06 02:47:00,
2013-10-05 22:52:00,68.0,68.0,29.95,ESE,103,0.0,0.0,100,0.04,,OVC OVC///CB,0.43,WUHU216DAVISVP2,2013-10-06 02:52:00,
2013-10-05 22:57:00,68.0,68.0,29.95,ESE,103,0.0,0.0,100,0.03,,OVC OVC///CB,0.43,WUHU216DAVISVP2,2013-10-06 02:57:00,
2013-10-05 23:02:00,67.9,67.9,29.95,ESE,103,0.0,0.0,100,0.03,,OVC OVC///CB,0.43,WUHU216DAVISVP2,2013-10-06 03:02:00,
2013-10-05 23:07:00,67.9,67.9,29.95,ESE,103,0.0,0.0,100,0.02,,OVC OVC///CB,0.43,WUHU216DAVISVP2,2013-10-06 03:07:00,
2013-10-05 23:12:00,67.9,67.9,29.94,ESE,103,0.0,0.0,100,0.02,,OVC OVC///CB,0.43,WUHU216DAVISVP2,2013-10-06 03:12:00,
2013-10-05 23:17:00,67.9,67.9,29.94,ESE,103,0.0,0.0,100,0.01,,OVC OVC///CB,0.43,WUHU216DAVISVP2,2013-10-06 03:17:00,
2013-10-05 23:22:00,67.8,67.8,29.95,ESE,103,0.0,0.0,100,0.01,,OVC OVC///CB,0.43,WUHU216DAVISVP2,2013-10-06 03:22:00,
2013-10-05 23:27:00,67.8,67.8,29.94,ESE,103,0.0,0.0,100,0.01,,OVC OVC///CB,0.43,WUHU216DAVISVP2,2013-10-06 03:27:00,
2013-10-05 23:32:00,67.8,67.8,29.94,ESE,103,0.0,0.0,100,0.01,,OVC OVC///CB,0.43,WUHU216DAVISVP2,2013-10-06 03:32:00,
2013-10-05 23:37:00,67.7,67.7,29.94,ESE,103,0.0,1.0,100,0.01,,OVC OVC///CB,0.43,WUHU216DAVISVP2,2013-10-06 03:37:00,
2013-10-05 23:42:00,67.7,67.7,29.94,ESE,103,0.0,1.0,100,0.01,,OVC OVC///CB,0.43,WUHU216DAVISVP2,2013-10-06 03:42:00,
2013-10-05 23:47:00,67.6,67.6,29.94,ESE,103,0.0,1.0,100,0.00,,OVC OVC///CB,0.43,WUHU216DAVISVP2,2013-10-06 03:47:00,
2013-10-05 23:52:00,67.5,67.5,29.94,ESE,103,0.0,1.0,100,0.00,,OVC OVC///CB,0.43,WUHU216DAVISVP2,2013-10-06 03:52:00,
2013-10-05 23:57:00,67.5,67.5,29.94,ESE,103,0.0,0.0,100,0.00,,OVC OVC///CB,0.43,WUHU216DAVISVP2,2013-10-06 03:57:00,